Regional Weather Roundup
Issued by NWS Goodland, KS

Home | Current Version | Previous Version | Graphics & Text | Print | Product List | Glossary On
Versions: 1 2 3 4 5 6 7 8 9 10 11 12 13 14 15 16 17 18 19 20 21 22 23 24 25 26 27 28 29 30 31 32 33 34 35 36 37 38 39 40 41 42 43 44 45 46 47 48 49 50
000
ASUS43 KGLD 280908
RWRGLD

GOODLAND FORECAST AREA HOURLY WEATHER ROUNDUP
NATIONAL WEATHER SERVICE GOODLAND KS
300 AM MDT THU AUG 28 2014

...OFFICIAL OBSERVATIONS...

CITY           SKY/WX    TMP DP  RH WIND       PRES   REMARKS
GOODLAND KS    PTCLDY    58  58 100 N7        30.03F
HILL CITY KS   MOCLDY    67  66  97 N6        29.97S
IMPERIAL NEB   CLOUDY    61  59  93 SW7       30.02S
MCCOOK NEB     LGT RAIN  63  62  97 NW6       29.98F
AKRON CO       CLOUDY    58  56  93 NW9       30.06F
BURLINGTON CO  MOCLDY    59  57  93 NE13      30.04F
LIMON CO       PTCLDY    54  53  97 W3        30.13F
$$

...UNOFFICIAL OBSERVATIONS...

CITY           SKY/WX    TMP DP  RH WIND       PRES   REMARKS
GOVE KS          N/A     69  32  25 CALM        N/A
NORTON KS      LGT RAIN  63  59  88 NW8       29.98
SHARON SPRINGS   N/A     62  59  91 NE10        N/A
WAKEENEY KS      N/A     69  65  88 MISG        N/A
KIT CARSON CO    N/A     61  58  88 MISG        N/A
YUMA CO          N/A     60  60 100 CALM        N/A
$$


USA.gov is the U.S. government's official web portal to all federal, state and local government web resources and services.